Regional Weather Roundup
Issued by NWS

Home | Current Version | Previous Version | Text Only | Print | Product List | Glossary On
Versions: 1 2 3 4 5 6 7 8 9 10 11 12 13 14 15 16 17 18 19 20 21 22 23 24 25 26 27 28 29 30 31 32 33 34 35 36 37 38 39 40 41 42 43 44 45 46 47 48 49 50
000
ASUS43 KIND 211209
RWRIN

WEATHER ROUNDUP FOR INDIANA
NATIONAL WEATHER SERVICE INDIANAPOLIS IN
700 AM EST FRI FEB 21 2020

NOTE: "FAIR" INDICATES FEW OR NO CLOUDS BELOW 12,000 FEET WITH NO
SIGNIFICANT WEATHER AND/OR OBSTRUCTIONS TO VISIBILITY.

* - STATION DOES NOT REPORT WEATHER SUCH AS PRECIPITATION OR FOG.

+ - STATION NOT QUALITY CONTROLLED BY THE NATIONAL WEATHER SERVICE.
    USE DATA WITH CAUTION...ESPECIALLY DEWPOINT AND RELATIVE
    HUMIDITY OBSERVATIONS.

INZ001>003-010>013-019-020-211300-
NORTHWEST INDIANA

CITY           SKY/WX    TMP DP  RH WIND       PRES   REMARKS
GARY /AIRPORT/ CLEAR     16   1  53 W5        30.62F WCI   9
KNOX *+        FAIR      12   5  73 W6        30.61S WCI   3
LA PORTE +     FAIR      11   3  70 W7        30.60R WCI   0
6HR MIN TEMP:  10; 6HR MAX TEMP:  14;

MICHIGAN CITY+ FAIR      12  10  92 SW6       30.60F WCI   3
MONTICELLO +   FAIR      13   5  70 SW3       30.63S
6HR MIN TEMP:  12; 6HR MAX TEMP:  15;

RENSSELAER +   FAIR      12   9  85 SW6       30.63S WCI   3
VALPARAISO     FAIR      10   3  73 W7        30.60F WCI  -1
6HR MIN TEMP:  10; 6HR MAX TEMP:  14;


$$

LMZ046-743>745-211300-
SOUTHERN LAKE MICHIGAN

STATION/POSITION TIME  TEMP    WIND        PRES    WAVE
                       AIR SEA DIR/SP/G            HT
                 (UTC) (F)     (DEG/KT/KT) (MB)    (FT)
MICHIGAN CITY    1140   17     230/ 10/ 14   N/A

$$

INZ004-005-014>016-021>024-211300-
NORTH CENTRAL INDIANA

CITY           SKY/WX    TMP DP  RH WIND       PRES   REMARKS
ELKHART        FAIR      12   7  79 W5        30.58  WCI   4
GOSHEN         FAIR      13   6  74 SW7       30.58S WCI   3
6HR MIN TEMP:  13; 6HR MAX TEMP:  16;

LOGANSPORT +   FAIR      12   7  79 W5        30.62F WCI   4
PERU/GRISSOM   FAIR      11  10  95 W6        30.60S WCI   2
6HR MIN TEMP:  11; 6HR MAX TEMP:  16;

PLYMOUTH *+    CLEAR     10   3  72 W5        30.59S WCI   2
ROCHESTER +    FAIR      16   9  73 W5        30.61S WCI   9
SOUTH BEND     FAIR      12   4  70 SW7       30.58F WCI   1
6HR MIN TEMP:  12; 6HR MAX TEMP:  14;

WARSAW +       FAIR      12   5  73 W5        30.59R WCI   4

$$

INZ006>009-017-018-025>027-211300-
NORTHEAST INDIANA

CITY           SKY/WX    TMP DP  RH WIND       PRES   REMARKS
ANGOLA *+      FAIR      14   9  79 W6        30.55F WCI   5
AUBURN +       FAIR      14  10  85 SW3       30.58S
FORT WAYNE     FAIR      14   9  80 SW7       30.60S WCI   4
6HR MIN TEMP:  13; 6HR MAX TEMP:  15;

HUNTINGTON +     N/A     13   8  81 SW6       30.60S WCI   4
6HR MIN TEMP:  13; 6HR MAX TEMP:  16;

KENDALLVILLE + FAIR      13   6  75 SW5       30.56F WCI   5

$$

INZ028-029-035-036-043>045-051>053-211300-
WEST CENTRAL INDIANA

CITY           SKY/WX    TMP DP  RH WIND       PRES   REMARKS
CRAWFORDSVL +  FAIR      11   8  88 CALM      30.64S
6HR MIN TEMP:  11; 6HR MAX TEMP:  15;

GREENCASTLE +  FAIR      14  10  83 W3        30.64S
LAFAYETTE      FAIR      11   9  92 CALM      30.64F
6HR MIN TEMP:  11; 6HR MAX TEMP:  16;

TERRE HAUTE    FAIR      16  11  80 CALM      30.67S
6HR MIN TEMP:  16; 6HR MAX TEMP:  21;


$$

INZ030>032-037>040-046>048-054>057-064-065-211300-
CENTRAL INDIANA

CITY           SKY/WX    TMP DP  RH WIND       PRES   REMARKS
ANDERSON +     FAIR      13  11  90 CALM      30.62R
6HR MIN TEMP:  13; 6HR MAX TEMP:  17;

COLUMBUS       CLEAR     14  12  92 CALM      30.65
FRANKFORT +    FAIR      15  10  78 W3        30.64S
6HR MIN TEMP:  15; 6HR MAX TEMP:  19;

INDIANAPOLIS   FAIR      15  11  83 NW5       30.63R WCI   8
6HR MIN TEMP:  13; 6HR MAX TEMP:  18;

-EAGLE CREEK   FAIR      15   9  76 NW5       30.62S WCI   8
6HR MIN TEMP:  15; 6HR MAX TEMP:  19;

KOKOMO +       FAIR      14  10  84 W5        30.62S WCI   6
6HR MIN TEMP:  14; 6HR MAX TEMP:  16;

MARION +       FAIR      14  13  93 CALM      30.61F
SHELBYVILLE    FAIR      17  10  74 CALM      30.63R
6HR MIN TEMP:  16; 6HR MAX TEMP:  21;

ZIONSVILLE +   FAIR      12   9  88 W3        30.63R
6HR MIN TEMP:  12; 6HR MAX TEMP:  16;


$$

INZ033-034-041-042-049-050-058-059-211300-
EAST CENTRAL INDIANA

CITY           SKY/WX    TMP DP  RH WIND       PRES   REMARKS
MUNCIE         FAIR      16  10  77 W3        30.60S
6HR MIN TEMP:  16; 6HR MAX TEMP:  19;

PORTLAND +     FAIR      16  10  79 CALM      30.60R
RICHMOND +     FAIR      12  12 100 CALM      30.60R

$$

INZ060-061-067>069-081>083-085>088-211300-
SOUTHWEST INDIANA

CITY           SKY/WX    TMP DP  RH WIND       PRES   REMARKS
EVANSVILLE     FAIR      19  11  70 N7        30.69S WCI  10
6HR MIN TEMP:  19; 6HR MAX TEMP:  24;

HUNTINGBURG +  FAIR      19  14  81 N6        30.68R WCI  11
6HR MIN TEMP:  19; 6HR MAX TEMP:  23;

WASHINGTON +   FAIR      18  13  82 NW3       30.68S
6HR MIN TEMP:  18; 6HR MAX TEMP:  23;


$$

INZ062-063-066-070>080-084-089>092-211300-
SOUTH CENTRAL AND SOUTHEAST INDIANA

CITY           SKY/WX    TMP DP  RH WIND       PRES   REMARKS
BATESVILLE +   CLEAR     12  12 100 CALM      30.61S
BEDFORD +        N/A     16  12  86 CALM      30.65R
BLOOMINGTON    FAIR      14   9  80 CALM      30.64R
6HR MIN TEMP:  14; 6HR MAX TEMP:  19;

FRENCH LICK *+ FAIR      18  12  79 N3        30.65R
JEFFERSONVL +  FAIR      19  15  85 CALM      30.67R
6HR MIN TEMP:  19; 6HR MAX TEMP:  23;

MADISON *+     FAIR      18  16  93 CALM      30.64S

$$





USA.gov is the U.S. government's official web portal to all federal, state and local government web resources and services.